Weather History for KFIG - February, 2013

Change the Weather History Date:

Tuesday, February 19, 2013

  Actual Average (KDUJ) Record (KDUJ)
Temperature  
Mean Temperature 30 °F 27 °F  
Max Temperature 37 °F 36 °F 58 °F (1994)
Min Temperature 21 °F 19 °F -5 °F (1993)
Degree Days  
Heating Degree Days 35 38  
Month to date heating degree days 750  
Since 1 July heating degree days 4694  
Cooling Degree Days 0 0  
Month to date cooling degree days 0  
Year to date cooling degree days 0  
Moisture  
Dew Point 26 °F    
Average Humidity 84    
Maximum Humidity 100    
Minimum Humidity 63    
Precipitation  
Precipitation 0.26 in 0.09 in - ()
Month to date precipitation 1.53  
Sea Level Pressure  
Sea Level Pressure 29.76 in    
Wind  
Wind Speed 7 mph (WSW)    
Max Wind Speed 23 mph    
Max Gust Speed 38 mph    
Visibility 5 miles    
Events Fog , Rain , Snow    
T = Trace of Precipitation, MM = Missing Value Source: NWS Daily Summary

Daily Weather History Graph

Daily Weather History Graph

Search for Another Location

Airport or City:

Trip Planner

Search our weather history database for the weather conditions in past years. The results will help you decide how hot, cold, wet, or windy it might be!

Date:

Astronomy

Feb. 19, 2013 Rise Set
Actual Time 7:02 AM EST 5:53 PM EST
Civil Twilight 6:34 AM EST 6:21 PM EST
Nautical Twilight 6:02 AM EST 6:53 PM EST
Astronomical Twilight 5:30 AM EST 7:25 PM EST
Moon 12:21 PM EST (2/19) 2:34 AM EST (2/19)
Length of Visible Light 11h 46m
Length of Day
10h 50m
Waxing Gibbous, 67% of the Moon is Illuminated
Feb 19
Waxing Gibbous
Feb 25
Full
Mar 4
Last Quarter
Mar 11
New
Mar 19
First Quarter

Hourly Weather History & Observations

Time (EST) Temp. Windchill Dew Point Humidity Pressure Visibility Wind Dir Wind Speed Gust Speed Precip Events Conditions
12:54 AM 25.0 °F 18.1 °F 14.0 °F 63% 30.00 in 10.0 mi North 5.8 mph - N/A   Clear
1:54 AM 24.1 °F 16.0 °F 14.0 °F 65% 29.98 in 10.0 mi North 6.9 mph - N/A   Clear
2:54 AM 23.0 °F 14.7 °F 15.1 °F 72% 29.94 in 10.0 mi NNE 6.9 mph - N/A   Clear
3:54 AM 23.0 °F 13.9 °F 15.1 °F 72% 29.89 in 10.0 mi North 8.1 mph - N/A   Clear
4:54 AM 26.1 °F 19.4 °F 16.0 °F 66% 29.86 in 10.0 mi North 5.8 mph - N/A   Mostly Cloudy
5:49 AM 28.4 °F 20.4 °F 19.4 °F 69% 29.84 in 2.5 mi SSW 8.1 mph - 0.00 in Snow Light Snow
5:54 AM 28.0 °F 19.3 °F 21.9 °F 78% 29.89 in 0.8 mi SSW 9.2 mph - 0.00 in Snow Light Snow
6:15 AM 28.4 °F 22.2 °F 26.6 °F 93% 29.82 in 0.5 mi South 5.8 mph - 0.04 in Fog , Snow Snow
6:32 AM 28.4 °F - 26.6 °F 93% 29.79 in 2.0 mi Calm Calm - 0.07 in Snow Light Snow
6:41 AM 28.4 °F - 28.4 °F 100% 29.79 in 3.0 mi Calm Calm - 0.08 in   Overcast
6:48 AM 26.6 °F 20.0 °F 26.6 °F 100% 29.78 in 4.0 mi NE 5.8 mph - 0.09 in   Overcast
6:52 AM 28.4 °F 21.2 °F 26.6 °F 93% 29.78 in 4.0 mi NE 6.9 mph - 0.09 in Rain Light Freezing Rain
6:54 AM 28.9 °F 21.9 °F 27.0 °F 92% 29.83 in 4.0 mi NE 6.9 mph - 0.09 in Rain Light Freezing Rain
7:13 AM 28.4 °F 22.2 °F 28.4 °F 100% 29.78 in 2.5 mi NNE 5.8 mph - 0.01 in Snow Light Snow
7:26 AM 28.4 °F 22.2 °F 26.6 °F 93% 29.77 in 1.8 mi North 5.8 mph - 0.02 in Snow Light Snow
7:38 AM 28.4 °F - 28.4 °F 100% 29.77 in 0.8 mi Calm Calm - 0.03 in Snow Light Snow
7:54 AM 30.0 °F - 28.9 °F 96% 29.81 in 0.5 mi Calm Calm - 0.04 in Fog , Snow Snow
8:37 AM 33.8 °F 29.6 °F 30.2 °F 87% 29.75 in 1.2 mi SSW 4.6 mph - 0.04 in Snow Light Snow
8:54 AM 32.0 °F 26.4 °F 30.9 °F 96% 29.80 in 1.5 mi SSW 5.8 mph - 0.04 in Snow Light Snow
9:45 AM 33.8 °F 30.8 °F 32.0 °F 93% 29.72 in 3.0 mi South 3.5 mph - 0.01 in Snow Light Snow
9:52 AM 33.8 °F 29.6 °F 32.0 °F 93% 29.71 in 5.0 mi South 4.6 mph - 0.01 in Snow Light Snow
9:54 AM 33.1 °F 30.0 °F 32.0 °F 96% 29.75 in 6.0 mi Variable 3.5 mph - 0.01 in   Overcast
9:59 AM 33.8 °F 29.6 °F 30.2 °F 87% 29.71 in 7.0 mi SSW 4.6 mph - 0.00 in   Overcast
10:16 AM 33.8 °F - 32.0 °F 93% 29.71 in 2.5 mi Calm Calm - 0.00 in Snow Light Snow
10:27 AM 33.8 °F 30.8 °F 32.0 °F 93% 29.70 in 1.5 mi SSW 3.5 mph - 0.01 in Snow Light Snow
10:54 AM 34.0 °F 29.8 °F 32.0 °F 92% 29.74 in 4.0 mi SSW 4.6 mph - 0.02 in Snow Light Snow
11:01 AM 33.8 °F 28.6 °F 32.0 °F 93% 29.70 in 5.0 mi South 5.8 mph - 0.00 in Rain Light Rain
11:54 AM 35.1 °F 30.1 °F 33.1 °F 92% 29.72 in 6.0 mi SSW 5.8 mph - 0.01 in Rain Light Rain
12:42 PM 35.6 °F 31.7 °F 33.8 °F 93% 29.64 in 7.0 mi South 4.6 mph - 0.01 in Rain Light Rain
12:59 PM 35.6 °F - 33.8 °F 93% 29.63 in 5.0 mi Calm Calm - 0.00 in Rain Light Rain
1:54 PM 37.0 °F - 35.1 °F 93% 29.63 in 7.0 mi Calm Calm - 0.00 in Rain Light Rain
2:05 PM 37.4 °F 33.8 °F 35.6 °F 93% 29.59 in 1.8 mi West 4.6 mph - 0.03 in Rain Heavy Rain
2:17 PM 35.6 °F 30.7 °F 35.6 °F 100% 29.60 in 3.0 mi West 5.8 mph - 0.04 in Rain Light Rain
2:38 PM 37.4 °F 32.8 °F 35.6 °F 93% 29.61 in 7.0 mi West 5.8 mph - 0.05 in Rain Light Rain
2:54 PM 37.9 °F 29.6 °F 35.1 °F 89% 29.65 in 10.0 mi SW 13.8 mph 20.7 mph 0.05 in   Overcast
3:28 PM 37.4 °F 27.8 °F 30.2 °F 75% 29.62 in 10.0 mi WSW 17.3 mph 29.9 mph 0.00 in   Mostly Cloudy
3:54 PM 36.0 °F 26.0 °F 28.9 °F 76% 29.69 in 10.0 mi West 17.3 mph 28.8 mph 0.00 in   Overcast
4:54 PM 33.1 °F 20.6 °F 24.1 °F 70% 29.74 in 8.0 mi West 23.0 mph 38.0 mph 0.00 in   Overcast
5:05 PM 32.0 °F 22.5 °F 26.6 °F 80% 29.70 in 2.0 mi West 12.7 mph 29.9 mph 0.00 in Snow Light Snow
5:15 PM 32.0 °F 21.2 °F 26.6 °F 80% 29.70 in 4.0 mi WSW 16.1 mph 27.6 mph 0.00 in Snow Light Snow
5:54 PM 30.9 °F 18.1 °F 23.0 °F 72% 29.76 in 10.0 mi West 21.9 mph 35.7 mph 0.00 in   Overcast
6:30 PM 28.4 °F 16.2 °F 23.0 °F 80% 29.74 in 2.5 mi West 17.3 mph 31.1 mph 0.00 in Snow Light Snow
7:54 PM 28.0 °F 19.3 °F 18.0 °F 66% 29.81 in 10.0 mi WSW 9.2 mph 25.3 mph 0.00 in   Overcast
8:50 PM 26.6 °F 14.3 °F 19.4 °F 74% 29.77 in 4.0 mi West 16.1 mph 26.5 mph 0.00 in Snow Light Snow
8:54 PM 26.1 °F 12.3 °F 19.9 °F 78% 29.83 in 3.0 mi West 19.6 mph 31.1 mph 0.00 in Snow Light Snow
8:56 PM 26.6 °F 12.4 °F 19.4 °F 74% 29.77 in 2.5 mi West 21.9 mph 31.1 mph 0.00 in Snow Light Snow
9:54 PM 25.0 °F 11.7 °F 14.0 °F 63% 29.83 in 10.0 mi West 17.3 mph 26.5 mph 0.00 in   Overcast
10:54 PM 24.1 °F 13.1 °F 16.0 °F 71% 29.84 in 5.0 mi WSW 11.5 mph 20.7 mph 0.00 in Snow Light Snow
11:21 PM 24.8 °F 11.9 °F 17.6 °F 74% 29.80 in 2.5 mi West 16.1 mph 26.5 mph 0.00 in Snow Light Snow
11:30 PM 23.0 °F 10.6 °F 15.8 °F 74% 29.80 in 3.0 mi West 13.8 mph 29.9 mph 0.00 in Snow Light Snow
11:54 PM 21.9 °F 8.2 °F 12.9 °F 68% 29.87 in 4.0 mi West 16.1 mph 24.2 mph 0.00 in Snow Light Snow